Weather Roundup
Issued by NWS

Home | Current Version | Previous Version | Graphics & Text | Print | Product List | Glossary Off
Versions: 1 2 3 4 5 6 7 8 9 10 11 12 13 14 15 16 17 18 19 20 21 22 23 24 25 26 27 28 29 30 31 32 33 34 35 36 37 38 39 40 41 42 43 44 45 46 47 48 49 50

000
NZUS93 KARX 301759
HRRWXR

CURRENT HOURLY OBSERVATIONS ACROSS
MUCH OF THE UPPER MISSISSIPPI VALLEY
NATIONAL WEATHER SERVICE LA CROSSE WI
100 PM CDT SAT APR 30 2016


...SOUTHEAST MINNESOTA...


CITY           SKY/WX    TMP DP  RH WIND       PRES   REMARKS
ROCHESTER      LGT RAIN  45  37  73 E20       30.00F
ROCHESTER/MAYO FAIR      49  34  55 NE9G18    30.01F
WINONA         CLOUDY    54  36  50 E7        30.03F
AUSTIN         RAIN      43  37  81 NE20      29.97S
ALBERT LEA     NOT AVBL
DODGE CENTER   CLOUDY    48  36  61 E16G26    30.00S
PRESTON        RAIN      42  37  85 NE9       29.99F
OWATONNA       CLOUDY    50  36  57 NE15G21   30.00F
FARIBAULT      CLOUDY    52  36  54 NE16G22   30.03F
$$

...ELSEWHERE IN MINNESOTA...


CITY           SKY/WX    TMP DP  RH WIND       PRES   REMARKS
MINNEAPOLIS    CLOUDY    55  32  41 E16G28    30.06F
INTNL FALLS    SUNNY     52  27  38 NE12G23   30.27F
DULUTH         SUNNY     49  29  46 E18G28    30.22F
RED WING       PTSUNNY   55  32  41 E21G26    30.03F
REDWOOD FALLS  CLOUDY    52  35  52 E15G29    30.03F
MANKATO        CLOUDY    52  34  50 E17G26    30.00F
WORTHINGTON    RAIN      43  41  93 NE26G33   29.93S FOG
FAIRMONT       CLOUDY    45  36  70 NE24      29.95S
$$

...SOUTHWEST WISCONSIN...


CITY           SKY/WX    TMP DP  RH WIND       PRES   REMARKS
LA CROSSE      CLOUDY    51  35  54 E14G25    30.02F
PRAIRIE DU CHI LGT RAIN  47  42  83 NE12G18   29.96F
BOSCOBEL       LGT RAIN  49  44  83 E9        30.00F
LONE ROCK      NOT AVBL
PLATTEVILLE    CLOUDY    46  45  93 NE18G26   29.95F
FORT MC COY    CLOUDY    51  37  58 E14G22    30.04F
MAUSTON-NEW LI NOT AVBL
VIROQUA        MOCLDY    46  41  81 E15       30.00F
WIS DELLS      CLOUDY    49  38  66 E18G25    30.03F
$$

...ELSEWHERE IN WISCONSIN...


CITY           SKY/WX    TMP DP  RH WIND       PRES   REMARKS
MILWAUKEE      CLOUDY    45  39  79 E17       30.05F
MADISON        LGT RAIN  48  41  76 E15       30.01F
GREEN BAY      CLOUDY    52  38  58 NE15      30.12F
EAU CLAIRE     CLOUDY    57  33  40 E17G26    30.06F
BLACK RVR FLS  FAIR      53  33  47 E12G18    30.04F
MEDFORD        CLOUDY    53  33  46 E16G22    30.10F
WAUSAU         CLOUDY    56  30  37 E16       30.07F
WIS RAPIDS     CLOUDY    53  33  46 E15       30.08F
MARSHFIELD     CLOUDY    53  33  46 E13       30.06F
RICE LAKE      PTSUNNY   57  31  36 E14G20    30.12F
$$

...NORTHEAST IOWA...


CITY           SKY/WX    TMP DP  RH WIND       PRES   REMARKS
WATERLOO       LGT RAIN  47  44  90 NE26G35   29.84F FOG
DUBUQUE        LGT RAIN  46  44  93 NE20G29   29.91S FOG
DECORAH        LGT RAIN  45  43  93 NE15      29.95F
MASON CITY     LGT RAIN  44  42  93 NE22G31   29.92F FOG
CHARLES CITY   LGT RAIN  45  45 100 NE21      29.92F
OELWEIN        CLOUDY    46  46 100 E24G31    29.89S FOG
$$

...ELSEWHERE IN IOWA...


CITY           SKY/WX    TMP DP  RH WIND       PRES   REMARKS
DES MOINES     LGT RAIN  49  45  86 E13       29.77S
IOWA CITY      RAIN      49  48  97 E10G21    29.82R FOG
FORT DODGE     CLOUDY    45  41  87 E5        29.90R
MARSHALLTOWN   RAIN      47  45  93 E17G29    29.83R FOG
CEDAR RAPIDS   HVY RAIN  48  46  93 E22G31    29.80F FOG
$$

...NORTHERN ILLINOIS...


CITY           SKY/WX    TMP DP  RH WIND       PRES   REMARKS
CHICAGO-OHARE  LGT RAIN  45  41  86 E18       29.97F FOG
CHICAGO-MIDWAY LGT RAIN  46  40  79 E24G30    29.96F
MOLINE         LGT RAIN  50  47  89 E24G31    29.81F FOG
ROCKFORD       LGT RAIN  48  43  82 E20G25    29.97F HAZE
PEORIA         RAIN      54  52  93 E14       29.81F FOG
$$

NOTE: "FAIR" INDICATES FEW OR NO CLOUDS BELOW 12,000 FEET WITH NO
SIGNIFICANT WEATHER AND/OR OBSTRUCTIONS TO VISIBILITY. WIND
SPEEDS ARE IN MILES-PER-HOUR.




USA.gov is the U.S. government's official web portal to all federal, state and local government web resources and services.